Regional Weather Roundup
Issued by NWS Sterling, VA

Home | Current Version | Previous Version | Graphics & Text | Print | Product List | Glossary On
Versions: 1 2 3 4 5 6 7 8 9 10 11 12 13 14 15 16 17 18 19 20 21 22 23 24 25 26 27
000
ASUS41 KLWX 162311
RWRLWX

REGIONAL WEATHER ROUNDUP
NATIONAL WEATHER SERVICE BALTIMORE MD/WASHINGTON DC
600 PM EST SAT DEC 16 2017

Note: "FAIR" indicates few or no clouds below 12,000 feet
with no significant weather and/or obstructions to visibility.
 TC=TEMPERATURE CELSIUS

 * =Non NWS site. Station does not report precipitation (e.g. rain,
    snow, etc.), thunder, or fog.

DCZ001-MDZ009-015-VAZ040>042-051-053>054-170000-
WASHINGTON METRO

CITY           SKY/WX    TMP DP  RH WIND       PRES   REMARKS
WASHINGTON NAT PTCLDY    43  24  47 SW7       30.13R
DULLES         PTCLDY    37  23  56 S7        30.11R
ANDREWS AFB    CLEAR     40  22  48 S6        30.11R
FT BELVOIR     CLEAR     42  25  51 CALM      30.13R
QUANTICO       CLEAR     42  29  59 SW7       30.15R
COLLEGE PARK*  CLEAR     42  22  46 CALM      30.12R
LEESBURG*      CLEAR     41  27  56 SW3       30.11R
MANASSAS*      CLEAR     34  22  61 S5        30.13R
GAITHERSBURG*  CLEAR     37  22  54 CALM      30.11R

$$

MDZ006>007-011-014-170000-
BALTIMORE METRO

CITY           SKY/WX    TMP DP  RH WIND       PRES   REMARKS
BWI AIRPORT    CLEAR     40  23  50 CALM      30.12R
MD SCIENCE CTR   N/A     42  25  50 MISG      30.11R
MARTIN STATE   CLEAR     43  27  52 S5        30.13R
ANNAPOLIS      CLEAR     42  24  49 CALM      30.13R
FORT MEADE*    CLEAR     36  25  64 SW3       30.14R

$$

MDZ012-015-019>023-170000-
MARYLAND EASTERN SHORE

CITY           SKY/WX    TMP DP  RH WIND       PRES   REMARKS
OCEAN CITY     CLEAR     39  25  57 W8        30.17R
SALISBURY      CLEAR     36  26  67 S6        30.16R
BAY BRIDGE AP* CLEAR     41  27  56 SW5       30.13R
CAMBRIDGE*     CLEAR     39  25  56 S5        30.14R
EASTON*        PTCLDY    37  25  60 S6        30.17R

$$

MDZ017>025-170000-
SOUTHERN MARYLAND

CITY           SKY/WX    TMP DP  RH WIND       PRES   REMARKS
PATUXENT RIVER CLEAR     42  23  46 SW7       30.14R
ST INIGOES     CLEAR     43  28  55 S7        30.15R
LEONARDTOWN*   CLEAR     41  27  56 S5          N/A

$$

MDZ003>005-170000-
NORTH CENTRAL MARYLAND

CITY           SKY/WX    TMP DP  RH WIND       PRES   REMARKS
FREDERICK*     CLEAR     39  19  45 S3        30.13R
HAGERSTOWN APT CLEAR     43  24  47 W3        30.08R
WESTMINSTER*   CLEAR     37  25  60 S3        30.08R

$$

MDZ501>502-170000-
WESTERN MARYLAND

CITY           SKY/WX    TMP DP  RH WIND       PRES   REMARKS
OAKLAND*       CLEAR     32  23  69 SW12G21   29.98R WCI  23
CUMBERLAND*    CLEAR     43  27  52 S5        30.11R

$$

VAZ025>031-170000-
SHENANDOAH VALLEY

CITY           SKY/WX    TMP DP  RH WIND       PRES   REMARKS
WINCHESTER*    CLEAR     36  23  60 CALM      30.08R
FRONT ROYAL*   FAIR      43  25  49 CALM      30.08R
LURAY*         CLEAR     36  27  69 CALM      30.09R
NEW MARKET*    CLEAR     34  24  66 CALM      30.08R
STAUNTON*      CLEAR     41  23  48 S6        30.11R
WAYNESBORO*    CLEAR     41  22  47 SW6       30.09R

$$

WVZ021-048>050-054>055-170000-
EASTERN WEST VIRGINIA PANHANDLE

CITY           SKY/WX    TMP DP  RH WIND       PRES   REMARKS
MARTINSBURG    CLEAR     39  23  52 CALM      30.08R
PETERSBURG*    CLEAR     37  24  59 CALM      30.08R

$$

VAZ036>039-050-170000-
CENTRAL FOOTHILLS

CITY           SKY/WX    TMP DP  RH WIND       PRES   REMARKS
CHARLOTTESVILL CLEAR     42  25  50 S9        30.10R
CULPEPER*      FAIR      35  21  56 CALM      30.13R
ORANGE*        CLEAR     41  25  52 CALM      30.12R
GORDONSVILLE*  CLEAR     39  25  57 CALM      30.12R
WARRENTON*     CLEAR     37  19  48 CALM      30.11R

$$

VAZ055>057-170000-
NORTH AND CENTRAL PIEDMONT

CITY           SKY/WX    TMP DP  RH WIND       PRES   REMARKS
FREDERICKSBRG* CLEAR     41  26  54 S6        30.14R
STAFFORD*      CLEAR     41  23  48 S3        30.17R

$$

NCZ024-NYZ072-PAZ021-071-VAZ022-071-170000-
OTHER REGIONAL OBSERVATIONS

CITY           SKY/WX    TMP DP  RH WIND       PRES   REMARKS
NEW YORK CITY  CLOUDY    39  24  55 VRB7G17   30.07R
PHILADELPHIA   MOCLDY    41  25  53 SW15      30.10R
PITTSBURGH     PTCLDY    41  26  55 SW3       30.06R
ROANOKE        PTCLDY    45  23  42 S5        30.17R
RICHMOND       PTCLDY    46  23  40 SW8       30.17R
RALEIGH        CLOUDY    39  24  55 SW6       30.22R

$$

ANZ530>537-170000-
MARINE OBSERVATIONS

STATION/POSITION TIME  TEMP    WIND        PRES
                       AIR SEA DIR/SP/G
                 (UTC) (F)     (DEG/KT/KT) (MB)
THOMAS PT LIGHT  2300   44 44  210/ 10/ 11   N/A
BALT KEY BRIDGE  2248   43     220/  7/  8 1019.8R
COVE POINT       2248   43     210/ 10/ 10 1021.3R
LEWISETTA        2248   43 39  220/  7/  8 1021.1R
SOLOMONS ISLAND  2248   43 45  210/  7/  9 1020.4R
PINEY POINT      2242          220/  8/  8   N/A

$$





USA.gov is the U.S. government's official web portal to all federal, state and local government web resources and services.